TIME,�Ζ��t�@���q�[�^�[�[-���� [L],�t���O,�Ζ��t�@���q�[�^�[-���� [MJ/h],�t���O
2003/12/1 0:00,0,0,0,0
2003/12/1 0:15,0,0,0,0
2003/12/1 0:30,0,0,0,0
2003/12/1 0:45,0,0,0,0
2003/12/1 1:00,0,0,0,0
2003/12/1 1:15,0,0,0,0
2003/12/1 1:30,0,0,0,0
2003/12/1 1:45,0,0,0,0
2003/12/1 2:00,0,0,0,0
2003/12/1 2:15,0,0,0,0
2003/12/1 2:30,0,0,0,0
2003/12/1 2:45,0,0,0,0
2003/12/1 3:00,0,0,0,0
2003/12/1 3:15,0,0,0,0
2003/12/1 3:30,0,0,0,0
2003/12/1 3:45,0,0,0,0
2003/12/1 4:00,0,0,0,0
2003/12/1 4:15,0,0,0,0
2003/12/1 4:30,0,0,0,0
2003/12/1 4:45,0,0,0,0
2003/12/1 5:00,0,0,0,0
2003/12/1 5:15,0,0,0,0
2003/12/1 5:30,0,0,0,0
2003/12/1 5:45,0,0,0,0
2003/12/1 6:00,0.039769373,0,5.838144,0
2003/12/1 6:15,0.063279891,0,9.289488,0
2003/12/1 6:30,0.057350191,0,8.419008,0
2003/12/1 6:45,0.052202616,0,7.663344,0
2003/12/1 7:00,0.047250572,0,6.936384,0
2003/12/1 7:15,0.027085341,0,3.976128,0
2003/12/1 7:30,0.043293188,0,6.35544,0
2003/12/1 7:45,0.031063978,0,4.560192,0
2003/12/1 8:00,0.032296676,0,4.741152,0
2003/12/1 8:15,0.037848065,0,5.556096,0
2003/12/1 8:30,0.044139074,0,6.479616,0
2003/12/1 8:45,0.062076948,0,9.112896,0
2003/12/1 9:00,0.035697221,0,5.240352,0
2003/12/1 9:15,0,0,0,0
2003/12/1 9:30,0,0,0,0
2003/12/1 9:45,0,0,0,0
2003/12/1 10:00,0.030103324,0,4.419168,0
2003/12/1 10:15,0.041588665,0,6.105216,0
2003/12/1 10:30,0.034740817,0,5.099952,0
2003/12/1 10:45,0.028840872,0,4.23384,0
2003/12/1 11:00,0.03537842,0,5.193552,0
2003/12/1 11:15,0.043284687,0,6.354192,0
2003/12/1 11:30,0,0,0,0
2003/12/1 11:45,0,0,0,0
2003/12/1 12:00,0,0,0,0
2003/12/1 12:15,0,0,0,0
2003/12/1 12:30,0.013359891,0,1.961232,0
2003/12/1 12:45,0.030103324,0,4.419168,0
2003/12/1 13:00,0.062863324,0,9.228336,0
2003/12/1 13:15,0.058055804,0,8.522592,0
2003/12/1 13:30,0.043140163,0,6.332976,0
2003/12/1 13:45,0.03893624,0,5.71584,0
2003/12/1 14:00,0.031293515,0,4.593888,0
2003/12/1 14:15,0.038825722,0,5.699616,0
2003/12/1 14:30,0.029529482,0,4.334928,0
2003/12/1 14:45,0.036793896,0,5.401344,0
2003/12/1 15:00,0.029797275,0,4.37424,0
2003/12/1 15:15,0.036598365,0,5.37264,0
2003/12/1 15:30,0.035136131,0,5.157984,0
2003/12/1 15:45,0,0,0,0
2003/12/1 16:00,0,0,0,0
2003/12/1 16:15,0,0,0,0
2003/12/1 16:30,0,0,0,0
2003/12/1 16:45,0,0,0,0
2003/12/1 17:00,0,0,0,0
2003/12/1 17:15,0,0,0,0
2003/12/1 17:30,0.066102343,0,9.703824,0
2003/12/1 17:45,0.068984305,0,10.126896,0
2003/12/1 18:00,0.049843488,0,7.317024,0
2003/12/1 18:15,0.016220599,0,2.381184,0
2003/12/1 18:30,0.019587139,0,2.875392,0
2003/12/1 18:45,0.019132316,0,2.808624,0
2003/12/1 19:00,0.04667673,0,6.852144,0
2003/12/1 19:15,0.020926104,0,3.071952,0
2003/12/1 19:30,0.043986049,0,6.457152,0
2003/12/1 19:45,0.017491553,0,2.56776,0
2003/12/1 20:00,0.037508011,0,5.506176,0
2003/12/1 20:15,0.02427564,0,3.563664,0
2003/12/1 20:30,0.015744523,0,2.311296,0
2003/12/1 20:45,0.016144087,0,2.369952,0
2003/12/1 21:00,0.024870736,0,3.651024,0
2003/12/1 21:15,0.015782779,0,2.316912,0
2003/12/1 21:30,0.034213733,0,5.022576,0
2003/12/1 21:45,0.027408392,0,4.023552,0
2003/12/1 22:00,0.020734823,0,3.043872,0
2003/12/1 22:15,0.015693515,0,2.303808,0
2003/12/1 22:30,0.029648501,0,4.3524,0
2003/12/1 22:45,0,0,0,0
2003/12/1 23:00,0,0,0,0
2003/12/1 23:15,0,0,0,0
2003/12/1 23:30,0,0,0,0
2003/12/1 23:45,0,0,0,0
2003/12/2 0:00,0,0,0,0
2003/12/2 0:15,0,0,0,0
2003/12/2 0:30,0,0,0,0
2003/12/2 0:45,0,0,0,0
2003/12/2 1:00,0,0,0,0
2003/12/2 1:15,0,0,0,0
2003/12/2 1:30,0,0,0,0
2003/12/2 1:45,0,0,0,0
2003/12/2 2:00,0,0,0,0
2003/12/2 2:15,0,0,0,0
2003/12/2 2:30,0,0,0,0
2003/12/2 2:45,0,0,0,0
2003/12/2 3:00,0,0,0,0
2003/12/2 3:15,0,0,0,0
2003/12/2 3:30,0,0,0,0
2003/12/2 3:45,0,0,0,0
2003/12/2 4:00,0,0,0,0
2003/12/2 4:15,0,0,0,0
2003/12/2 4:30,0,0,0,0
2003/12/2 4:45,0,0,0,0
2003/12/2 5:00,0,0,0,0
2003/12/2 5:15,0,0,0,0
2003/12/2 5:30,0,0,0,0
2003/12/2 5:45,0.055768937,0,8.18688,0
2003/12/2 6:00,0.050260054,0,7.378176,0
2003/12/2 6:15,0.03281951,0,4.817904,0
2003/12/2 6:30,0.042842616,0,6.289296,0
2003/12/2 6:45,0.038613188,0,5.668416,0
2003/12/2 7:00,0.042489809,0,6.237504,0
2003/12/2 7:15,0.044462125,0,6.52704,0
2003/12/2 7:30,0.042664087,0,6.263088,0
2003/12/2 7:45,0.040572752,0,5.95608,0
2003/12/2 8:00,0.038464414,0,5.646576,0
2003/12/2 8:15,0.037822561,0,5.552352,0
2003/12/2 8:30,0.040504741,0,5.946096,0
2003/12/2 8:45,0.037282725,0,5.473104,0
2003/12/2 9:00,0.026622016,0,3.908112,0
2003/12/2 9:15,0,0,0,0
2003/12/2 9:30,0,0,0,0
2003/12/2 9:45,0,0,0,0
2003/12/2 10:00,0,0,0,0
2003/12/2 10:15,0,0,0,0
2003/12/2 10:30,0,0,0,0
2003/12/2 10:45,0,0,0,0
2003/12/2 11:00,0,0,0,0
2003/12/2 11:15,0,0,0,0
2003/12/2 11:30,0,0,0,0
2003/12/2 11:45,0,0,0,0
2003/12/2 12:00,0,0,0,0
2003/12/2 12:15,0.031531553,0,4.628832,0
2003/12/2 12:30,0.018303433,0,2.686944,0
2003/12/2 12:45,0.015693515,0,2.303808,0
2003/12/2 13:00,0.015689264,0,2.303184,0
2003/12/2 13:15,0.015685014,0,2.30256,0
2003/12/2 13:30,0.015689264,0,2.303184,0
2003/12/2 13:45,0.015689264,0,2.303184,0
2003/12/2 14:00,0.015685014,0,2.30256,0
2003/12/2 14:15,0.015689264,0,2.303184,0
2003/12/2 14:30,0.015689264,0,2.303184,0
2003/12/2 14:45,0.015685014,0,2.30256,0
2003/12/2 15:00,0.015697766,0,2.304432,0
2003/12/2 15:15,0.036351826,0,5.336448,0
2003/12/2 15:30,0,0,0,0
2003/12/2 15:45,0,0,0,0
2003/12/2 16:00,0,0,0,0
2003/12/2 16:15,0,0,0,0
2003/12/2 16:30,0,0,0,0
2003/12/2 16:45,0,0,0,0
2003/12/2 17:00,0.024483924,0,3.59424,0
2003/12/2 17:15,0.053069755,0,7.79064,0
2003/12/2 17:30,0.031816349,0,4.67064,0
2003/12/2 17:45,0.01572327,0,2.308176,0
2003/12/2 18:00,0.015706267,0,2.30568,0
2003/12/2 18:15,0.015702016,0,2.305056,0
2003/12/2 18:30,0.01572327,0,2.308176,0
2003/12/2 18:45,0.015697766,0,2.304432,0
2003/12/2 19:00,0.015761526,0,2.313792,0
2003/12/2 19:15,0.015702016,0,2.305056,0
2003/12/2 19:30,0.015697766,0,2.304432,0
2003/12/2 19:45,0.015702016,0,2.305056,0
2003/12/2 20:00,0.015710518,0,2.306304,0
2003/12/2 20:15,0.047169809,0,6.924528,0
2003/12/2 20:30,0.047182561,0,6.9264,0
2003/12/2 20:45,0.045320763,0,6.653088,0
2003/12/2 21:00,0.037894823,0,5.56296,0
2003/12/2 21:15,0.031816349,0,4.67064,0
2003/12/2 21:30,0.035093624,0,5.151744,0
2003/12/2 21:45,0.041609918,0,6.108336,0
2003/12/2 22:00,0.030532643,0,4.482192,0
2003/12/2 22:15,0.027132098,0,3.982992,0
2003/12/2 22:30,0.021074877,0,3.093792,0
2003/12/2 22:45,0.030549646,0,4.484688,0
2003/12/2 23:00,0,0,0,0
2003/12/2 23:15,0,0,0,0
2003/12/2 23:30,0,0,0,0
2003/12/2 23:45,0,0,0,0
2003/12/3 0:00,0,0,0,0
2003/12/3 0:15,0,0,0,0
2003/12/3 0:30,0,0,0,0
2003/12/3 0:45,0,0,0,0
2003/12/3 1:00,0,0,0,0
2003/12/3 1:15,0,0,0,0
2003/12/3 1:30,0,0,0,0
2003/12/3 1:45,0,0,0,0
2003/12/3 2:00,0,0,0,0
2003/12/3 2:15,0,0,0,0
2003/12/3 2:30,0,0,0,0
2003/12/3 2:45,0,0,0,0
2003/12/3 3:00,0,0,0,0
2003/12/3 3:15,0,0,0,0
2003/12/3 3:30,0,0,0,0
2003/12/3 3:45,0,0,0,0
2003/12/3 4:00,0,0,0,0
2003/12/3 4:15,0,0,0,0
2003/12/3 4:30,0,0,0,0
2003/12/3 4:45,0,0,0,0
2003/12/3 5:00,0,0,0,0
2003/12/3 5:15,0,0,0,0
2003/12/3 5:30,0.01435455,0,2.107248,0
2003/12/3 5:45,0.06695248,0,9.828624,0
2003/12/3 6:00,0.055692425,0,8.175648,0
2003/12/3 6:15,0.04505297,0,6.613776,0
2003/12/3 6:30,0.039671608,0,5.823792,0
2003/12/3 6:45,0.058123815,0,8.532576,0
2003/12/3 7:00,0.073842834,0,10.840128,0
2003/12/3 7:15,0.072291335,0,10.612368,0
2003/12/3 7:30,0.054361962,0,7.980336,0
2003/12/3 7:45,0.054744523,0,8.036496,0
2003/12/3 8:00,0.055093079,0,8.087664,0
2003/12/3 8:15,0.070854605,0,10.401456,0
2003/12/3 8:30,0,0,0,0
2003/12/3 8:45,0,0,0,0
2003/12/3 9:00,0,0,0,0
2003/12/3 9:15,0,0,0,0
2003/12/3 9:30,0,0,0,0
2003/12/3 9:45,0,0,0,0
2003/12/3 10:00,0,0,0,0
2003/12/3 10:15,0,0,0,0
2003/12/3 10:30,0,0,0,0
2003/12/3 10:45,0,0,0,0
2003/12/3 11:00,0,0,0,0
2003/12/3 11:15,0,0,0,0
2003/12/3 11:30,0,0,0,0
2003/12/3 11:45,0,0,0,0
2003/12/3 12:00,0,0,0,0
2003/12/3 12:15,0,0,0,0
2003/12/3 12:30,0,0,0,0
2003/12/3 12:45,0,0,0,0
2003/12/3 13:00,0,0,0,0
2003/12/3 13:15,0,0,0,0
2003/12/3 13:30,0,0,0,0
2003/12/3 13:45,0,0,0,0
2003/12/3 14:00,0,0,0,0
2003/12/3 14:15,0,0,0,0
2003/12/3 14:30,0.058264087,0,8.553168,0
2003/12/3 14:45,0.090845559,0,13.336128,0
2003/12/3 15:00,0,0,0,0
2003/12/3 15:15,0,0,0,0
2003/12/3 15:30,0.063874986,0,9.376848,0
2003/12/3 15:45,0.073464523,0,10.784592,0
2003/12/3 16:00,0.070455041,0,10.3428,0
2003/12/3 16:15,0.073154223,0,10.73904,0
2003/12/3 16:30,0.071934278,0,10.559952,0
2003/12/3 16:45,0.066361635,0,9.741888,0
2003/12/3 17:00,0.029678256,0,4.356768,0
2003/12/3 17:15,0.073847084,0,10.840752,0
2003/12/3 17:30,0.073847084,0,10.840752,0
2003/12/3 17:45,0.073847084,0,10.840752,0
2003/12/3 18:00,0.07045079,0,10.342176,0
2003/12/3 18:15,0.05815782,0,8.537568,0
2003/12/3 18:30,0.015876294,0,2.33064,0
2003/12/3 18:45,0.015689264,0,2.303184,0
2003/12/3 19:00,0.015689264,0,2.303184,0
2003/12/3 19:15,0.015685014,0,2.30256,0
2003/12/3 19:30,0.015689264,0,2.303184,0
2003/12/3 19:45,0.015685014,0,2.30256,0
2003/12/3 20:00,0.040474986,0,5.941728,0
2003/12/3 20:15,0.057732752,0,8.475168,0
2003/12/3 20:30,0.052245123,0,7.669584,0
2003/12/3 20:45,0.005071063,0,0.744432,0
2003/12/3 21:00,0.05309951,0,7.795008,0
2003/12/3 21:15,0.046702234,0,6.855888,0
2003/12/3 21:30,0.037593025,0,5.518656,0
2003/12/3 21:45,0.048266485,0,7.08552,0
2003/12/3 22:00,0.046459946,0,6.82032,0
2003/12/3 22:15,0.04642594,0,6.815328,0
2003/12/3 22:30,0,0,0,0
2003/12/3 22:45,0,0,0,0
2003/12/3 23:00,0,0,0,0
2003/12/3 23:15,0,0,0,0
2003/12/3 23:30,0,0,0,0
2003/12/3 23:45,0,0,0,0
2003/12/4 0:00,0,0,0,0
2003/12/4 0:15,0,0,0,0
2003/12/4 0:30,0,0,0,0
2003/12/4 0:45,0,0,0,0
2003/12/4 1:00,0,0,0,0
2003/12/4 1:15,0,0,0,0
2003/12/4 1:30,0,0,0,0
2003/12/4 1:45,0,0,0,0
2003/12/4 2:00,0,0,0,0
2003/12/4 2:15,0,0,0,0
2003/12/4 2:30,0,0,0,0
2003/12/4 2:45,0,0,0,0
2003/12/4 3:00,0,0,0,0
2003/12/4 3:15,0,0,0,0
2003/12/4 3:30,0,0,0,0
2003/12/4 3:45,0,0,0,0
2003/12/4 4:00,0,0,0,0
2003/12/4 4:15,0,0,0,0
2003/12/4 4:30,0,0,0,0
2003/12/4 4:45,0,0,0,0
2003/12/4 5:00,0,0,0,0
2003/12/4 5:15,0,0,0,0
2003/12/4 5:30,0,0,0,0
2003/12/4 5:45,0,0,0,0
2003/12/4 6:00,0.039824632,0,5.846256,0
2003/12/4 6:15,0.073434768,0,10.780224,0
2003/12/4 6:30,0.063798474,0,9.365616,0
2003/12/4 6:45,0.073847084,0,10.840752,0
2003/12/4 7:00,0.072104305,0,10.584912,0
2003/12/4 7:15,0.06913733,0,10.14936,0
2003/12/4 7:30,0.071866267,0,10.549968,0
2003/12/4 7:45,0.068776022,0,10.09632,0
2003/12/4 8:00,0.067947139,0,9.97464,0
2003/12/4 8:15,0.070127738,0,10.294752,0
2003/12/4 8:30,0,0,0,0
2003/12/4 8:45,0,0,0,0
2003/12/4 9:00,0.038158365,0,5.601648,0
2003/12/4 9:15,0.061634877,0,9.048,0
2003/12/4 9:30,0.071156403,0,10.44576,0
2003/12/4 9:45,0.07213406,0,10.58928,0
2003/12/4 10:00,0.072227575,0,10.603008,0
2003/12/4 10:15,0.026009918,0,3.818256,0
2003/12/4 10:30,0,0,0,0
2003/12/4 10:45,0,0,0,0
2003/12/4 11:00,0,0,0,0
2003/12/4 11:15,0,0,0,0
2003/12/4 11:30,0,0,0,0
2003/12/4 11:45,0,0,0,0
2003/12/4 12:00,0.061141798,0,8.975616,0
2003/12/4 12:15,0.073842834,0,10.840128,0
2003/12/4 12:30,0.073847084,0,10.840752,0
2003/12/4 12:45,0.073842834,0,10.840128,0
2003/12/4 13:00,0.073847084,0,10.840752,0
2003/12/4 13:15,0.073847084,0,10.840752,0
2003/12/4 13:30,0.071747248,0,10.532496,0
2003/12/4 13:45,0.068350954,0,10.03392,0
2003/12/4 14:00,0.06115455,0,8.977488,0
2003/12/4 14:15,0.044946703,0,6.598176,0
2003/12/4 14:30,0.042481308,0,6.236256,0
2003/12/4 14:45,0.039854387,0,5.850624,0
2003/12/4 15:00,0.07531782,0,11.056656,0
2003/12/4 15:15,0.066527411,0,9.766224,0
2003/12/4 15:30,0,0,0,0
2003/12/4 15:45,0,0,0,0
2003/12/4 16:00,0,0,0,0
2003/12/4 16:15,0,0,0,0
2003/12/4 16:30,0.019153569,0,2.811744,0
2003/12/4 16:45,0.073842834,0,10.840128,0
2003/12/4 17:00,0.073847084,0,10.840752,0
2003/12/4 17:15,0.073847084,0,10.840752,0
2003/12/4 17:30,0.073847084,0,10.840752,0
2003/12/4 17:45,0.073847084,0,10.840752,0
2003/12/4 18:00,0.073847084,0,10.840752,0
2003/12/4 18:15,0.073851335,0,10.841376,0
2003/12/4 18:30,0.072155313,0,10.5924,0
2003/12/4 18:45,0.069281853,0,10.170576,0
2003/12/4 19:00,0.071530463,0,10.500672,0
2003/12/4 19:15,0.078731117,0,11.557728,0
2003/12/4 19:30,0.072780163,0,10.684128,0
2003/12/4 19:45,0.062591281,0,9.1884,0
2003/12/4 20:00,0.05123346,0,7.521072,0
2003/12/4 20:15,0.056602071,0,8.309184,0
2003/12/4 20:30,0.051722289,0,7.592832,0
2003/12/4 20:45,0.05060861,0,7.429344,0
2003/12/4 21:00,0.055326866,0,8.121984,0
2003/12/4 21:15,0.071084142,0,10.435152,0
2003/12/4 21:30,0.050808392,0,7.458672,0
2003/12/4 21:45,0.032832262,0,4.819776,0
2003/12/4 22:00,0.039969155,0,5.867472,0
2003/12/4 22:15,0.040955313,0,6.01224,0
2003/12/4 22:30,0.04280436,0,6.28368,0
2003/12/4 22:45,0.061469101,0,9.023664,0
2003/12/4 23:00,0,0,0,0
2003/12/4 23:15,0,0,0,0
2003/12/4 23:30,0,0,0,0
2003/12/4 23:45,0,0,0,0
2003/12/5 0:00,0,0,0,0
2003/12/5 0:15,0,0,0,0
2003/12/5 0:30,0,0,0,0
2003/12/5 0:45,0,0,0,0
2003/12/5 1:00,0,0,0,0
2003/12/5 1:15,0,0,0,0
2003/12/5 1:30,0,0,0,0
2003/12/5 1:45,0,0,0,0
2003/12/5 2:00,0,0,0,0
2003/12/5 2:15,0,0,0,0
2003/12/5 2:30,0,0,0,0
2003/12/5 2:45,0,0,0,0
2003/12/5 3:00,0,0,0,0
2003/12/5 3:15,0,0,0,0
2003/12/5 3:30,0,0,0,0
2003/12/5 3:45,0,0,0,0
2003/12/5 4:00,0,0,0,0
2003/12/5 4:15,0,0,0,0
2003/12/5 4:30,0,0,0,0
2003/12/5 4:45,0,0,0,0
2003/12/5 5:00,0,0,0,0
2003/12/5 5:15,0,0,0,0
2003/12/5 5:30,0,0,0,0
2003/12/5 5:45,0,0,0,0
2003/12/5 6:00,0.039522834,0,5.801952,0
2003/12/5 6:15,0.073842834,0,10.840128,0
2003/12/5 6:30,0.07138594,0,10.479456,0
2003/12/5 6:45,0.069286104,0,10.1712,0
2003/12/5 7:00,0.063063106,0,9.257664,0
2003/12/5 7:15,0.064929155,0,9.5316,0
2003/12/5 7:30,0.059756076,0,8.772192,0
2003/12/5 7:45,0.062927084,0,9.237696,0
2003/12/5 8:00,0.056011226,0,8.222448,0
2003/12/5 8:15,0.03288327,0,4.827264,0
2003/12/5 8:30,0,0,0,0
2003/12/5 8:45,0,0,0,0
2003/12/5 9:00,0,0,0,0
2003/12/5 9:15,0,0,0,0
2003/12/5 9:30,0,0,0,0
2003/12/5 9:45,0,0,0,0
2003/12/5 10:00,0,0,0,0
2003/12/5 10:15,0,0,0,0
2003/12/5 10:30,0,0,0,0
2003/12/5 10:45,0,0,0,0
2003/12/5 11:00,0,0,0,0
2003/12/5 11:15,0,0,0,0
2003/12/5 11:30,0,0,0,0
2003/12/5 11:45,0,0,0,0
2003/12/5 12:00,0,0,0,0
2003/12/5 12:15,0,0,0,0
2003/12/5 12:30,0,0,0,0
2003/12/5 12:45,0,0,0,0
2003/12/5 13:00,0,0,0,0
2003/12/5 13:15,0,0,0,0
2003/12/5 13:30,0,0,0,0
2003/12/5 13:45,0,0,0,0
2003/12/5 14:00,0.054553243,0,8.008416,0
2003/12/5 14:15,0.073842834,0,10.840128,0
2003/12/5 14:30,0.062965341,0,9.243312,0
2003/12/5 14:45,0.068112916,0,9.998976,0
2003/12/5 15:00,0.054408719,0,7.9872,0
2003/12/5 15:15,0.059896349,0,8.792784,0
2003/12/5 15:30,0.053193025,0,7.808736,0
2003/12/5 15:45,0.056682834,0,8.32104,0
2003/12/5 16:00,0.061388338,0,9.011808,0
2003/12/5 16:15,0,0,0,0
2003/12/5 16:30,0,0,0,0
2003/12/5 16:45,0.035331662,0,5.186688,0
2003/12/5 17:00,0.068567738,0,10.065744,0
2003/12/5 17:15,0.062348992,0,9.152832,0
2003/12/5 17:30,0.084911608,0,12.465024,0
2003/12/5 17:45,0,0,0,0
2003/12/5 18:00,0,0,0,0
2003/12/5 18:15,0.037070191,0,5.441904,0
2003/12/5 18:30,0.071989537,0,10.568064,0
2003/12/5 18:45,0.06021515,0,8.839584,0
2003/12/5 19:00,0.063611444,0,9.33816,0
2003/12/5 19:15,0.066365886,0,9.742512,0
2003/12/5 19:30,0.073842834,0,10.840128,0
2003/12/5 19:45,0.052466158,0,7.702032,0
2003/12/5 20:00,0.059258747,0,8.699184,0
2003/12/5 20:15,0.043922289,0,6.447792,0
2003/12/5 20:30,0.038281635,0,5.619744,0
2003/12/5 20:45,0.044938202,0,6.596928,0
2003/12/5 21:00,0.035140381,0,5.158608,0
2003/12/5 21:15,0.061239564,0,8.989968,0
2003/12/5 21:30,0.055615913,0,8.164416,0
2003/12/5 21:45,0.061426594,0,9.017424,0
2003/12/5 22:00,0.046064632,0,6.762288,0
2003/12/5 22:15,0.044496131,0,6.532032,0
2003/12/5 22:30,0.04455564,0,6.540768,0
2003/12/5 22:45,0.041380381,0,6.07464,0
2003/12/5 23:00,0,0,0,0
2003/12/5 23:15,0,0,0,0
2003/12/5 23:30,0,0,0,0
2003/12/5 23:45,0,0,0,0
2003/12/6 0:00,0,0,0,0
2003/12/6 0:15,0,0,0,0
2003/12/6 0:30,0,0,0,0
2003/12/6 0:45,0,0,0,0
2003/12/6 1:00,0,0,0,0
2003/12/6 1:15,0,0,0,0
2003/12/6 1:30,0,0,0,0
2003/12/6 1:45,0,0,0,0
2003/12/6 2:00,0,0,0,0
2003/12/6 2:15,0,0,0,0
2003/12/6 2:30,0,0,0,0
2003/12/6 2:45,0,0,0,0
2003/12/6 3:00,0,0,0,0
2003/12/6 3:15,0,0,0,0
2003/12/6 3:30,0,0,0,0
2003/12/6 3:45,0,0,0,0
2003/12/6 4:00,0,0,0,0
2003/12/6 4:15,0,0,0,0
2003/12/6 4:30,0,0,0,0
2003/12/6 4:45,0,0,0,0
2003/12/6 5:00,0,0,0,0
2003/12/6 5:15,0,0,0,0
2003/12/6 5:30,0,0,0,0
2003/12/6 5:45,0,0,0,0
2003/12/6 6:00,0.061316076,0,9.0012,0
2003/12/6 6:15,0.071734496,0,10.530624,0
2003/12/6 6:30,0.063802725,0,9.36624,0
2003/12/6 6:45,0.062833569,0,9.223968,0
2003/12/6 7:00,0.071968283,0,10.564944,0
2003/12/6 7:15,0.07306921,0,10.72656,0
2003/12/6 7:30,0.045745831,0,6.715488,0
2003/12/6 7:45,0.057328937,0,8.415888,0
2003/12/6 8:00,0.062093951,0,9.115392,0
2003/12/6 8:15,0.072087302,0,10.582416,0
2003/12/6 8:30,0.041299619,0,6.062784,0
2003/12/6 8:45,0,0,0,0
2003/12/6 9:00,0,0,0,0
2003/12/6 9:15,0,0,0,0
2003/12/6 9:30,0,0,0,0
2003/12/6 9:45,0,0,0,0
2003/12/6 10:00,0,0,0,0
2003/12/6 10:15,0,0,0,0
2003/12/6 10:30,0,0,0,0
2003/12/6 10:45,0,0,0,0
2003/12/6 11:00,0,0,0,0
2003/12/6 11:15,0,0,0,0
2003/12/6 11:30,0,0,0,0
2003/12/6 11:45,0.061473351,0,9.024288,0
2003/12/6 12:00,0.073838583,0,10.839504,0
2003/12/6 12:15,0.071798256,0,10.539984,0
2003/12/6 12:30,0.068967302,0,10.1244,0
2003/12/6 12:45,0.055917711,0,8.20872,0
2003/12/6 13:00,0.073847084,0,10.840752,0
2003/12/6 13:15,0.073120218,0,10.734048,0
2003/12/6 13:30,0.073847084,0,10.840752,0
2003/12/6 13:45,0.073847084,0,10.840752,0
2003/12/6 14:00,0.073562289,0,10.798944,0
2003/12/6 14:15,0.0720703,0,10.57992,0
2003/12/6 14:30,0.072975695,0,10.712832,0
2003/12/6 14:45,0.021521199,0,3.159312,0
2003/12/6 15:00,0,0,0,0
2003/12/6 15:15,0,0,0,0
2003/12/6 15:30,0,0,0,0
2003/12/6 15:45,0,0,0,0
2003/12/6 16:00,0,0,0,0
2003/12/6 16:15,0,0,0,0
2003/12/6 16:30,0.03319782,0,4.87344,0
2003/12/6 16:45,0.073842834,0,10.840128,0
2003/12/6 17:00,0.073290245,0,10.759008,0
2003/12/6 17:15,0.071122398,0,10.440768,0
2003/12/6 17:30,0.064159782,0,9.418656,0
2003/12/6 17:45,0.067556076,0,9.917232,0
2003/12/6 18:00,0.057146158,0,8.389056,0
2003/12/6 18:15,0.059768828,0,8.774064,0
2003/12/6 18:30,0.038617439,0,5.66904,0
2003/12/6 18:45,0.019680654,0,2.88912,0
2003/12/6 19:00,0.021100381,0,3.097536,0
2003/12/6 19:15,0.027293624,0,4.006704,0
2003/12/6 19:30,0.015757275,0,2.313168,0
2003/12/6 19:45,0.016118583,0,2.366208,0
2003/12/6 20:00,0.015702016,0,2.305056,0
2003/12/6 20:15,0.019748665,0,2.899104,0
2003/12/6 20:30,0.027701689,0,4.066608,0
2003/12/6 20:45,0.024177875,0,3.549312,0
2003/12/6 21:00,0.028156512,0,4.133376,0
2003/12/6 21:15,0.020726322,0,3.042624,0
2003/12/6 21:30,0.022605123,0,3.318432,0
2003/12/6 21:45,0.03263673,0,4.791072,0
2003/12/6 22:00,0.028067248,0,4.120272,0
2003/12/6 22:15,0.032402943,0,4.756752,0
2003/12/6 22:30,0.033894932,0,4.975776,0
2003/12/6 22:45,0.032581471,0,4.78296,0
2003/12/6 23:00,0.031833351,0,4.673136,0
2003/12/6 23:15,0.04674049,0,6.861504,0
2003/12/6 23:30,0,0,0,0
2003/12/6 23:45,0,0,0,0
2003/12/7 0:00,0,0,0,0
2003/12/7 0:15,0,0,0,0
2003/12/7 0:30,0,0,0,0
2003/12/7 0:45,0,0,0,0
2003/12/7 1:00,0,0,0,0
2003/12/7 1:15,0,0,0,0
2003/12/7 1:30,0,0,0,0
2003/12/7 1:45,0,0,0,0
2003/12/7 2:00,0,0,0,0
2003/12/7 2:15,0,0,0,0
2003/12/7 2:30,0,0,0,0
2003/12/7 2:45,0,0,0,0
2003/12/7 3:00,0,0,0,0
2003/12/7 3:15,0,0,0,0
2003/12/7 3:30,0,0,0,0
2003/12/7 3:45,0,0,0,0
2003/12/7 4:00,0,0,0,0
2003/12/7 4:15,0,0,0,0
2003/12/7 4:30,0,0,0,0
2003/12/7 4:45,0,0,0,0
2003/12/7 5:00,0,0,0,0
2003/12/7 5:15,0,0,0,0
2003/12/7 5:30,0,0,0,0
2003/12/7 5:45,0.002954223,0,0.43368,0
2003/12/7 6:00,0.073838583,0,10.839504,0
2003/12/7 6:15,0.070540054,0,10.35528,0
2003/12/7 6:30,0.062859074,0,9.227712,0
2003/12/7 6:45,0.063675204,0,9.34752,0
2003/12/7 7:00,0.056678583,0,8.320416,0
2003/12/7 7:15,0.070748338,0,10.385856,0
2003/12/7 7:30,0.061728392,0,9.061728,0
2003/12/7 7:45,0.063717711,0,9.35376,0
2003/12/7 8:00,0.07182376,0,10.543728,0
2003/12/7 8:15,0.068346703,0,10.033296,0
2003/12/7 8:30,0.064368065,0,9.449232,0
2003/12/7 8:45,0.073847084,0,10.840752,0
2003/12/7 9:00,0.073847084,0,10.840752,0
2003/12/7 9:15,0.053193025,0,7.808736,0
2003/12/7 9:30,0,0,0,0
2003/12/7 9:45,0.049898747,0,7.325136,0
2003/12/7 10:00,0.06658267,0,9.774336,0
2003/12/7 10:15,0.056823106,0,8.341632,0
2003/12/7 10:30,0.065009918,0,9.543456,0
2003/12/7 10:45,0.054442725,0,7.992192,0
2003/12/7 11:00,0.053567084,0,7.863648,0
2003/12/7 11:15,0.049001853,0,7.193472,0
2003/12/7 11:30,0.061294823,0,8.99808,0
2003/12/7 11:45,0.051501253,0,7.560384,0
2003/12/7 12:00,0.05547139,0,8.1432,0
2003/12/7 12:15,0.048700054,0,7.149168,0
2003/12/7 12:30,0.070722834,0,10.382112,0
2003/12/7 12:45,0.057613733,0,8.457696,0
2003/12/7 13:00,0.056185504,0,8.248032,0
2003/12/7 13:15,0.046366431,0,6.806592,0
2003/12/7 13:30,0.034043706,0,4.997616,0
2003/12/7 13:45,0,0,0,0
2003/12/7 14:00,0,0,0,0
2003/12/7 14:15,0,0,0,0
2003/12/7 14:30,0,0,0,0
2003/12/7 14:45,0,0,0,0
2003/12/7 15:00,0,0,0,0
2003/12/7 15:15,0,0,0,0
2003/12/7 15:30,0,0,0,0
2003/12/7 15:45,0,0,0,0
2003/12/7 16:00,0,0,0,0
2003/12/7 16:15,0,0,0,0
2003/12/7 16:30,0,0,0,0
2003/12/7 16:45,0,0,0,0
2003/12/7 17:00,0,0,0,0
2003/12/7 17:15,0,0,0,0
2003/12/7 17:30,0.02969951,0,4.359888,0
2003/12/7 17:45,0.073838583,0,10.839504,0
2003/12/7 18:00,0.073847084,0,10.840752,0
2003/12/7 18:15,0.073842834,0,10.840128,0
2003/12/7 18:30,0.07288218,0,10.699104,0
2003/12/7 18:45,0.069643161,0,10.223616,0
2003/12/7 19:00,0.06420654,0,9.42552,0
2003/12/7 19:15,0.065549755,0,9.622704,0
2003/12/7 19:30,0.067636839,0,9.929088,0
2003/12/7 19:45,0.067003488,0,9.836112,0
2003/12/7 20:00,0.036802398,0,5.402592,0
2003/12/7 20:15,0.028726104,0,4.216992,0
2003/12/7 20:30,0.056177003,0,8.246784,0
2003/12/7 20:45,0.045516294,0,6.681792,0
2003/12/7 21:00,0.035748229,0,5.24784,0
2003/12/7 21:15,0.032390191,0,4.75488,0
2003/12/7 21:30,0.061974932,0,9.09792,0
2003/12/7 21:45,0.051399237,0,7.545408,0
2003/12/7 22:00,0.051114441,0,7.5036,0
2003/12/7 22:15,0.059522289,0,8.737872,0
2003/12/7 22:30,0.063806975,0,9.366864,0
2003/12/7 22:45,0.051883815,0,7.616544,0
2003/12/7 23:00,0.055399128,0,8.132592,0
2003/12/7 23:15,0.060508447,0,8.88264,0
2003/12/7 23:30,0,0,0,0
2003/12/7 23:45,0,0,0,0
2003/12/8 0:00,0,0,0,0
2003/12/8 0:15,0,0,0,0
2003/12/8 0:30,0,0,0,0
2003/12/8 0:45,0,0,0,0
2003/12/8 1:00,0,0,0,0
2003/12/8 1:15,0,0,0,0
2003/12/8 1:30,0,0,0,0
2003/12/8 1:45,0,0,0,0
2003/12/8 2:00,0,0,0,0
2003/12/8 2:15,0,0,0,0
2003/12/8 2:30,0,0,0,0
2003/12/8 2:45,0,0,0,0
2003/12/8 3:00,0,0,0,0
2003/12/8 3:15,0,0,0,0
2003/12/8 3:30,0,0,0,0
2003/12/8 3:45,0,0,0,0
2003/12/8 4:00,0,0,0,0
2003/12/8 4:15,0,0,0,0
2003/12/8 4:30,0,0,0,0
2003/12/8 4:45,0,0,0,0
2003/12/8 5:00,0,0,0,0
2003/12/8 5:15,0,0,0,0
2003/12/8 5:30,0,0,0,0
2003/12/8 5:45,0,0,0,0
2003/12/8 6:00,0.035046866,0,5.14488,0
2003/12/8 6:15,0.073838583,0,10.839504,0
2003/12/8 6:30,0.072920436,0,10.70472,0
2003/12/8 6:45,0.073409264,0,10.77648,0
2003/12/8 7:00,0.06814267,0,10.003344,0
2003/12/8 7:15,0.070063978,0,10.285392,0
2003/12/8 7:30,0.065039673,0,9.547824,0
2003/12/8 7:45,0.068032153,0,9.98712,0
2003/12/8 8:00,0.067381798,0,9.891648,0
2003/12/8 8:15,0.067381798,0,9.891648,0
2003/12/8 8:30,0.081706594,0,11.994528,0
2003/12/8 8:45,0,0,0,0
2003/12/8 9:00,0,0,0,0
2003/12/8 9:15,0,0,0,0
2003/12/8 9:30,0,0,0,0
2003/12/8 9:45,0,0,0,0
2003/12/8 10:00,0,0,0,0
2003/12/8 10:15,0,0,0,0
2003/12/8 10:30,0,0,0,0
2003/12/8 10:45,0,0,0,0
2003/12/8 11:00,0,0,0,0
2003/12/8 11:15,0,0,0,0
2003/12/8 11:30,0,0,0,0
2003/12/8 11:45,0,0,0,0
2003/12/8 12:00,0,0,0,0
2003/12/8 12:15,0,0,0,0
2003/12/8 12:30,0,0,0,0
2003/12/8 12:45,0,0,0,0